Flag for Denmark Weather past 2 weeks in Odense, Denmark

Now
45 °F

Quite cool.


Feels Like: 41 °F
Forecast: 41 / 50 °F
Wind: 6 mph from South

Location: Vamdrup

Current Time: Apr 25, 2015 at 6:54:09 AM

Latest Report: Apr 25, 2015 at 6:20 AM


Visibility: N/A

Pressure: 29.62 "Hg

Humidity: 87%

Dew point: 41 °F

Location of OdenseLocation

Historic Weather in Odense — Graph

°F

Odense temperature yesterday

Maximum temperature yesterday: 55 °F (at 2:20 PM)
Minimum temperature yesterday: 41 °F (at 11:20 PM)
Average temperature yesterday: 47 °F

Past Weeks' High & Low Weather Summary

 TemperatureHumidityPressure
High68 °F (Apr 11, 1:50 PM)100% (Apr 10, 6:20 AM)30.36 "Hg (Apr 10, 6:20 AM)
Low34 °F (Apr 18, 6:20 AM)24% (Apr 20, 3:50 PM)29.65 "Hg (Apr 25, 4:50 AM)
Average46 °F76%30.10 "Hg
* Reported Apr 10 5:20 AM — Apr 25 5:20 AM, Odense, Weather by CustomWeather, © 2015

Note: Actual official high and low records may vary slightly from our data, if they occured in-between our weather recording intervals... More about our weather records

Advertising

Odense weather history for previous 24 hours

 ConditionsComfort  
Time TempWeatherWind HumidityBarometerVisibility
5:20 AM
Sat, Apr 25
43 °FQuite cool.7 mph100%29.65 "HgN/A
4:50 AM43 °FQuite cool.6 mph100%29.65 "HgN/A
4:20 AM43 °FQuite cool.5 mph93%29.68 "HgN/A
3:50 AM41 °FQuite cool.5 mph93%29.68 "HgN/A
3:20 AM41 °FQuite cool.5 mph93%29.68 "HgN/A
2:50 AM41 °FQuite cool.5 mph100%29.68 "HgN/A
2:20 AM43 °FQuite cool.6 mph93%29.68 "HgN/A
1:50 AM43 °FQuite cool.7 mph93%29.71 "HgN/A
1:20 AM43 °FQuite cool.8 mph93%29.71 "HgN/A
12:50 AM43 °FQuite cool.9 mph93%29.71 "HgN/A
12:20 AM43 °FQuite cool.8 mph93%29.74 "HgN/A
11:50 PM
Fri, Apr 24
41 °FQuite cool.3 mph93%29.74 "HgN/A
11:20 PM41 °FQuite cool.6 mph93%29.74 "HgN/A
10:50 PM43 °FQuite cool.5 mph87%29.74 "HgN/A
10:20 PM43 °FQuite cool.6 mph87%29.74 "HgN/A
9:50 PM45 °FQuite cool.7 mph87%29.77 "HgN/A
9:20 PM45 °FQuite cool.8 mph87%29.77 "HgN/A
8:50 PM46 °FCool.8 mph87%29.77 "HgN/A
8:20 PM50 °FCool.10 mph76%29.77 "HgN/A
7:50 PM52 °FCool.12 mph72%29.77 "HgN/A
7:20 PM54 °FCool.13 mph67%29.77 "HgN/A
4:50 PM55 °FPassing clouds.14 mph55%29.80 "HgN/A
4:20 PM54 °FPassing clouds.14 mph58%29.80 "HgN/A
3:50 PM54 °FPassing clouds.13 mph58%29.80 "HgN/A
2:20 PM55 °FPassing clouds.13 mph63%29.83 "HgN/A
1:50 PM54 °FPassing clouds.15 mph63%29.83 "HgN/A
1:20 PM54 °FScattered clouds.15 mph63%29.83 "HgN/A
12:50 PM54 °FScattered clouds.12 mph67%29.83 "HgN/A
11:50 AM52 °FPartly sunny.12 mph67%29.86 "HgN/A
10:50 AM50 °FScattered clouds.9 mph71%29.86 "HgN/A
10:20 AM50 °FScattered clouds.12 mph71%29.86 "HgN/A
9:50 AM48 °FScattered clouds.10 mph76%29.86 "HgN/A
9:20 AM48 °FBroken clouds.9 mph76%29.86 "HgN/A
8:50 AM46 °FBroken clouds.10 mph87%29.89 "HgN/A
8:20 AM46 °FBroken clouds.10 mph87%29.89 "HgN/A
7:50 AM46 °FCool.9 mph87%29.89 "HgN/A
7:20 AM45 °FQuite cool.9 mph93%29.89 "HgN/A
6:50 AM45 °FQuite cool.9 mph93%29.89 "HgN/A
6:20 AM45 °FQuite cool.9 mph93%29.89 "HgN/A
Weather by CustomWeather, © 2015

See weather overviewHow to use our weather pages